GEFSCGP_850_meantemp_312.txt.gz
Temperature
10 9 8 9 9 10 10 10 10 11 11 10 10 10 11 11 11 11 11 10 10 9 9 8 8 8 7 8 8 7 8 8 8 8 7 7 7 7 7 7 7 8 8 8
9 8 9 10 10 10 10 9 9 10 10 10 9 10 10 10 10 10 10 10 9 9 8 8 7 7 7 7 7 7 7 7 7 7 7 6 6 6 7 7 7 7 7 7
9 9 9 10 9 9 9 9 9 9 9 9 9 9 10 10 10 10 10 9 9 8 8 7 7 6 6 6 6 6 6 6 6 6 6 6 6 6 6 6 6 6 7 7
8 9 9 9 8 8 8 8 8 8 7 7 8 7 9 9 9 9 9 9 8 8 7 7 6 6 6 6 6 6 6 6 6 6 6 5 5 5 5 6 6 6 6 6
8 8 8 8 8 8 7 8 7 7 6 6 7 6 8 9 8 8 8 8 8 7 7 6 6 6 5 5 5 5 5 5 5 5 5 5 5 5 5 5 5 5 5 6
7 7 7 7 7 7 7 7 7 6 6 5 7 7 7 8 8 8 7 8 7 7 6 6 5 5 5 5 5 5 5 5 5 5 5 4 4 4 5 5 5 5 5 5
7 7 7 7 6 7 6 5 5 5 5 6 8 7 7 8 8 7 7 7 6 6 5 5 5 4 4 4 4 4 4 4 4 4 4 4 4 4 4 4 4 4 5 5
6 6 6 6 6 5 6 6 5 5 6 6 7 7 7 7 7 7 7 6 6 5 5 5 4 4 4 4 4 4 4 4 4 4 4 4 4 4 4 4 4 4 4 4
5 6 6 6 6 6 6 5 6 5 4 5 6 7 7 7 6 6 6 6 5 5 4 4 3 3 3 3 3 3 3 3 3 3 3 3 3 3 3 3 4 4 4 4
5 4 5 5 5 5 5 5 4 4 4 5 7 7 6 6 6 6 5 5 5 4 4 3 3 3 2 2 3 2 3 2 3 3 3 3 3 3 3 3 3 3 3 3
5 3 4 4 4 4 4 4 4 4 5 5 5 6 7 6 5 5 4 5 4 3 3 3 2 2 2 2 2 2 2 2 2 2 2 2 2 2 2 2 2 2 3 3
4 3 3 4 3 3 4 4 4 3 4 4 4 5 6 5 5 5 4 4 3 3 2 2 2 2 1 1 1 1 1 1 1 1 2 2 2 2 2 2 2 2 2 2
3 3 3 3 3 2 2 3 2 2 3 3 4 5 5 5 4 4 4 3 3 2 2 1 1 1 1 1 1 1 1 1 1 1 1 1 1 2 2 2 2 2 2 2
3 2 2 3 3 2 2 1 1 1 1 2 3 4 4 4 3 3 3 3 2 2 1 1 1 1 0 0 0 0 0 0 0 0 1 1 1 1 1 1 1 1 1 1
2 1 2 2 3 2 2 1 1 0 1 2 3 3 4 3 2 3 3 2 2 1 1 0 0 0 -0 -0 -0 -0 -0 -0 -0 -0 0 0 0 0 1 1 1 1 1 1
1 1 1 1 2 2 1 2 1 1 1 1 2 2 3 3 3 2 2 1 1 0 0 -0 -0 -0 -0 -1 -1 -1 -1 -1 -1 -0 -0 -0 0 0 0 0 0 0 0 0
0 -0 1 2 2 2 1 1 1 1 1 1 1 2 2 2 1 1 1 1 0 -0 -1 -1 -1 -1 -1 -1 -1 -1 -1 -1 -1 -1 -1 -0 -0 -0 -0 -0 -0 -0 -0 -0
-0 -0 0 1 1 1 3 2 2 1 1 1 1 1 1 1 1 1 1 1 -0 -1 -1 -1 -1 -1 -1 -1 -1 -1 -1 -1 -1 -1 -1 -1 -1 -1 -1 -1 -1 -0 -0 -0
-0 -0 0 1 1 1 2 2 1 0 0 1 0 0 1 1 1 1 1 0 -0 -1 -1 -1 -1 -1 -1 -1 -1 -1 -1 -1 -1 -2 -1 -1 -1 -1 -1 -1 -1 -1 -1 -1
-1 -1 -1 0 1 1 3 1 2 1 0 1 1 0 0 -0 -1 -0 0 -0 -1 -1 -1 -1 -1 -1 -1 -1 -1 -1 -2 -2 -2 -2 -2 -2 -2 -2 -2 -1 -1 -1 -1 -1
-2 -2 -1 -1 -0 1 1 1 1 1 1 1 1 1 0 -1 -1 -0 -1 -1 -1 -1 -1 -1 -1 -1 -2 -2 -2 -2 -2 -2 -2 -2 -2 -2 -2 -2 -2 -2 -2 -2 -2 -1
-2 -2 -2 -1 -0 1 0 -0 -0 0 1 1 1 1 0 -0 -0 -1 -1 -1 -1 -2 -2 -2 -2 -2 -2 -2 -2 -2 -2 -3 -3 -2 -2 -3 -2 -2 -2 -2 -2 -2 -2 -2
-1 -1 -1 -0 0 1 1 1 1 1 1 1 0 0 -0 -1 -1 -1 -2 -2 -2 -2 -2 -2 -2 -2 -2 -2 -3 -3 -3 -3 -3 -3 -3 -3 -3 -3 -3 -2 -2 -2 -2 -2
-1 -1 -1 -1 -1 1 1 1 1 1 1 0 0 -0 -1 -1 -2 -2 -2 -2 -2 -2 -2 -2 -2 -2 -2 -3 -3 -3 -3 -3 -3 -3 -3 -3 -3 -3 -3 -3 -3 -3 -3 -3
-0 -2 -2 -2 -1 -0 1 1 1 0 0 -0 -0 -1 -1 -2 -2 -2 -2 -2 -3 -3 -3 -3 -3 -3 -3 -3 -3 -3 -3 -3 -3 -3 -4 -4 -3 -3 -3 -3 -3 -3 -4 -4
-1 -2 -2 -1 -0 -1 0 0 0 0 -0 -1 -1 -1 -2 -2 -2 -2 -2 -3 -3 -3 -3 -3 -3 -3 -3 -3 -3 -3 -3 -3 -4 -4 -4 -4 -4 -4 -4 -4 -4 -4 -4 -4

GEFSCGP_850_meantemp_318.txt.gz
Temperature
7 5 5 6 6 7 7 7 7 7 8 7 7 7 7 7 7 6 6 7 7 7 8 8 8 8 8 8 8 8 8 8 8 8 8 8 8 8 8 7 7 7 7 7
5 5 6 7 7 7 7 6 6 6 7 7 6 6 6 6 6 6 6 7 7 7 7 7 7 7 7 7 7 7 7 7 7 7 7 7 7 7 7 7 7 7 7 7
5 6 7 7 6 6 6 6 6 6 6 6 6 6 6 6 6 6 6 7 7 6 6 7 7 7 7 7 7 7 6 6 6 6 6 6 6 6 6 6 7 6 6 6
5 6 6 6 6 6 6 6 6 6 5 4 5 4 5 5 5 5 5 5 6 6 6 6 6 6 6 6 6 6 6 6 6 6 6 6 6 6 6 6 6 6 6 6
5 5 5 6 6 6 5 6 5 5 4 3 4 4 4 4 5 5 4 5 5 5 5 5 5 5 6 6 5 5 5 5 5 5 5 5 5 5 5 5 5 6 6 6
5 5 5 5 5 5 5 4 4 3 3 3 4 4 4 4 4 4 4 5 5 5 5 5 5 5 5 5 5 5 5 5 5 5 5 4 4 4 5 5 5 5 5 5
4 5 5 5 5 4 4 3 3 3 2 3 4 4 4 4 4 4 4 4 4 4 4 4 4 4 4 4 4 4 4 4 4 4 4 4 4 4 4 4 4 4 4 5
4 4 4 4 4 4 3 3 3 3 3 3 3 3 4 4 4 4 4 4 4 4 4 4 4 4 4 3 4 4 4 4 3 3 3 3 3 3 3 3 3 4 4 4
3 3 4 4 4 4 4 2 3 2 1 2 3 3 4 4 3 3 3 3 3 3 3 3 3 3 3 3 3 3 3 3 3 3 3 3 3 3 3 3 3 3 3 3
2 2 3 3 4 3 3 2 1 2 2 3 3 3 3 3 3 2 2 2 3 3 3 3 3 3 2 2 2 2 2 2 2 2 2 2 2 2 2 2 2 3 3 3
2 2 2 2 2 2 2 2 1 1 1 2 2 3 3 3 2 2 2 2 3 2 2 2 2 2 2 2 2 2 1 1 1 1 1 2 2 2 2 2 2 2 2 2
1 0 0 1 1 1 1 1 1 1 1 0 1 2 3 2 2 2 2 2 2 2 2 2 2 1 1 1 1 1 1 1 1 1 1 1 1 1 1 2 2 2 2 2
1 -0 1 1 1 0 0 0 -0 -1 -0 -1 0 2 2 2 2 2 2 2 2 1 1 1 1 1 1 0 0 0 0 0 0 0 0 0 1 1 1 1 1 1 1 1
1 -1 0 2 1 -0 -1 -1 -1 -1 -1 -1 -0 1 2 2 1 1 1 1 1 1 1 1 0 0 0 0 -0 -0 -0 -0 -0 -0 -0 -0 -0 0 0 0 1 1 1 1
-0 -0 -1 -1 0 -0 -1 -1 -2 -2 -1 -0 0 0 2 1 0 1 1 1 1 1 0 0 -0 -0 -0 -0 -0 -0 -1 -1 -1 -1 -1 -1 -1 -0 -0 0 0 0 0 0
-2 -1 -1 -1 -0 -1 -1 -1 -1 -1 -1 -1 -1 -0 1 1 1 1 1 1 0 0 0 -0 -0 -1 -1 -1 -1 -1 -1 -1 -1 -1 -1 -1 -1 -1 -1 -0 -0 -0 -0 -0
-2 -2 -1 -1 -1 -1 -0 -0 -1 -1 -2 -2 -0 0 0 -0 -0 0 0 0 0 0 -0 -0 -1 -1 -1 -1 -1 -1 -1 -1 -1 -1 -1 -1 -1 -1 -1 -1 -1 -1 -1 -1
-3 -2 -3 -2 -1 -0 1 -0 -1 -1 -1 -2 -1 -1 -1 -0 0 1 1 0 0 -0 -1 -1 -1 -1 -1 -1 -1 -1 -1 -1 -1 -1 -1 -1 -1 -1 -1 -1 -1 -1 -1 -1
-3 -2 -3 -3 -2 -1 0 -0 -1 -1 -1 -1 -2 -1 -1 -0 -1 -0 1 0 0 -0 -1 -1 -1 -1 -2 -2 -2 -1 -1 -2 -2 -2 -2 -2 -2 -2 -2 -2 -2 -2 -2 -2
-4 -3 -3 -3 -2 -1 1 0 -0 -0 -0 -0 -1 -1 -2 -2 -2 -1 1 0 -0 -1 -1 -1 -2 -2 -2 -2 -2 -2 -2 -2 -2 -2 -2 -2 -2 -2 -2 -2 -2 -2 -2 -2
-3 -4 -4 -4 -3 -2 -1 -1 -0 0 1 0 -0 -0 -1 -2 -1 0 -0 -1 -1 -1 -1 -2 -2 -2 -2 -2 -2 -2 -2 -2 -2 -2 -3 -2 -2 -3 -3 -3 -3 -3 -3 -2
-4 -4 -4 -4 -3 -1 -1 -2 -1 -0 0 0 0 0 -0 -0 -0 -0 -1 -1 -1 -1 -2 -2 -2 -2 -2 -2 -3 -3 -2 -2 -3 -3 -3 -3 -3 -3 -3 -3 -3 -3 -3 -3
-4 -3 -4 -3 -1 -1 -1 -0 1 0 0 0 -0 -0 -1 -1 -1 -1 -1 -2 -2 -2 -2 -2 -3 -3 -3 -3 -3 -3 -3 -3 -3 -3 -3 -3 -3 -3 -3 -3 -3 -3 -3 -3
-4 -4 -4 -4 -3 -2 -1 0 0 0 -0 -0 -0 -1 -1 -1 -2 -2 -2 -2 -2 -2 -3 -3 -3 -3 -3 -3 -3 -3 -3 -3 -3 -3 -3 -3 -3 -3 -3 -3 -4 -4 -4 -4
-3 -5 -5 -4 -4 -3 -1 0 1 0 -0 -1 -1 -1 -1 -2 -2 -2 -2 -2 -2 -3 -3 -3 -3 -3 -3 -3 -3 -3 -3 -3 -3 -3 -4 -4 -4 -4 -4 -4 -4 -4 -4 -4
-4 -4 -4 -3 -2 -3 -1 1 0 -0 -0 -1 -1 -1 -1 -2 -2 -2 -2 -2 -3 -3 -3 -3 -3 -3 -3 -3 -3 -3 -3 -4 -4 -4 -4 -4 -4 -4 -4 -4 -4 -4 -4 -4

GEFSCGP_850_meantemp_324.txt.gz
Temperature
6 5 5 5 5 6 6 6 6 6 6 6 5 5 5 5 5 5 5 5 6 6 7 7 7 7 7 7 7 7 7 7 7 8 8 8 8 7 7 7 7 7 7 7
4 5 5 5 5 5 5 5 5 5 6 6 5 5 5 5 4 5 4 5 5 6 6 6 6 6 7 7 7 7 7 7 7 7 7 7 7 7 7 7 6 6 6 6
5 5 5 5 5 5 5 5 5 5 5 5 5 5 5 5 4 5 5 5 5 5 5 6 6 6 6 6 6 6 6 6 6 6 6 6 6 6 6 6 6 6 6 6
4 4 5 5 5 5 5 5 5 5 4 3 4 4 5 4 4 3 4 4 4 5 5 5 5 6 6 6 6 6 6 6 6 5 5 5 5 5 6 6 6 5 5 5
4 4 4 4 4 4 4 4 4 4 3 3 3 3 4 4 4 3 3 3 4 4 4 5 5 5 5 5 5 5 5 5 5 5 5 5 5 5 5 5 5 5 5 5
4 4 4 4 4 4 3 3 3 2 2 3 3 3 3 3 3 3 3 3 4 4 4 4 4 5 5 5 5 5 5 5 5 5 4 4 4 4 4 5 4 4 4 4
4 4 3 4 4 3 3 2 2 2 1 2 2 2 3 3 3 3 2 3 3 3 4 4 4 4 4 4 4 5 4 4 4 4 4 4 4 3 4 4 4 4 4 4
3 3 3 3 3 3 2 3 2 3 3 2 2 2 3 3 2 3 3 3 3 3 3 3 4 3 4 4 4 4 4 4 4 3 3 3 3 3 3 3 3 3 3 3
2 3 3 3 3 3 2 1 2 1 0 1 2 1 2 2 2 2 2 2 2 3 3 3 3 3 3 3 3 3 3 3 3 3 3 3 2 2 2 2 2 2 3 3
2 2 2 2 3 2 2 1 0 1 2 2 2 1 2 3 2 1 0 1 2 2 2 3 3 2 2 2 2 2 2 2 2 2 2 2 2 2 2 2 2 2 2 2
1 1 1 1 1 1 1 1 0 -0 0 1 2 3 2 2 2 1 0 1 2 2 2 2 2 2 2 2 2 2 2 2 1 1 1 1 1 1 1 1 1 1 1 1
0 -0 0 0 0 0 1 0 -0 1 0 -1 -1 1 2 1 1 0 1 2 2 2 2 2 1 1 1 1 1 1 1 1 1 1 1 1 1 1 1 1 1 1 1 1
-0 -0 1 1 0 -1 -1 -1 -2 -2 -2 -2 -1 2 2 0 1 1 1 1 2 1 1 1 1 1 1 1 1 0 0 0 0 0 0 0 0 0 0 0 0 0 0 0
0 -1 0 2 1 -0 -1 -2 -2 -2 -1 -2 -1 0 1 1 0 0 1 1 1 1 1 1 0 0 0 0 0 -0 -0 -0 -1 -1 -1 -0 -0 -0 -0 -0 -0 -0 -0 -0
-1 -1 -1 -1 -1 -1 -1 -1 -3 -2 -2 -1 -1 -1 1 0 -1 0 0 1 0 0 0 0 0 0 0 -0 -0 -0 -1 -1 -1 -1 -1 -1 -1 -1 -1 -1 -1 -1 -1 -1
-2 -1 -2 -1 -1 -2 -2 -2 -2 -2 -2 -2 -2 -1 -0 -0 -0 -0 -0 -0 -0 0 0 -0 -0 -0 -0 -0 -1 -1 -1 -1 -1 -1 -1 -1 -1 -1 -1 -1 -1 -1 -1 -1
-3 -2 -1 -1 -2 -1 -1 -1 -2 -2 -3 -2 -1 -0 -1 -1 -1 -1 -0 -0 -0 0 -0 -0 -0 -0 -1 -1 -1 -1 -1 -2 -2 -2 -1 -2 -2 -1 -1 -1 -1 -1 -1 -1
-3 -3 -3 -2 -2 -0 1 -1 -2 -2 -2 -3 -2 -2 -2 -1 -1 0 1 0 0 -0 -0 -1 -1 -1 -1 -1 -1 -2 -2 -2 -2 -2 -2 -2 -2 -2 -2 -2 -2 -2 -2 -2
-4 -3 -3 -3 -3 -2 -0 -1 -2 -2 -2 -2 -3 -2 -2 -2 -2 -0 1 1 0 -0 -1 -1 -1 -1 -1 -1 -2 -2 -2 -2 -2 -2 -2 -2 -2 -2 -2 -2 -2 -2 -2 -2
-4 -4 -4 -4 -2 -1 0 -1 -2 -1 -1 -1 -2 -3 -3 -3 -2 -1 1 0 -0 -1 -1 -1 -1 -1 -2 -2 -2 -2 -2 -2 -2 -2 -2 -2 -2 -2 -2 -2 -2 -3 -3 -3
-4 -4 -4 -4 -3 -2 -1 -2 -1 -0 0 -0 -1 -1 -2 -3 -1 -0 -0 -0 -1 -1 -1 -1 -2 -2 -2 -2 -2 -3 -3 -3 -3 -3 -3 -3 -3 -3 -3 -3 -3 -3 -3 -3
-4 -5 -5 -5 -4 -1 -2 -3 -2 -1 -0 -0 -0 -1 -1 -1 -1 -1 -1 -1 -1 -1 -2 -2 -2 -2 -2 -3 -3 -3 -3 -3 -3 -3 -3 -3 -3 -3 -3 -3 -3 -3 -3 -3
-5 -4 -4 -4 -2 -2 -2 -1 -0 -0 -0 -0 -0 -0 -1 -1 -1 -1 -2 -2 -2 -2 -2 -2 -2 -2 -3 -3 -3 -3 -3 -3 -3 -3 -3 -3 -3 -3 -3 -4 -4 -4 -4 -4
-6 -6 -5 -5 -4 -3 -2 -1 -0 -0 -0 -0 -0 -1 -1 -2 -2 -2 -2 -2 -2 -2 -2 -3 -3 -3 -3 -3 -3 -3 -3 -3 -3 -3 -3 -3 -4 -4 -4 -4 -4 -4 -4 -4
-4 -6 -6 -6 -5 -4 -1 -0 0 0 -0 -0 -1 -1 -1 -1 -2 -2 -2 -2 -2 -3 -3 -3 -3 -3 -3 -3 -3 -3 -3 -3 -3 -3 -4 -4 -4 -4 -4 -4 -4 -4 -4 -4
-6 -6 -5 -3 -2 -3 -1 1 0 -0 -0 -0 -1 -1 -1 -1 -2 -2 -2 -2 -3 -3 -3 -3 -3 -3 -3 -3 -4 -4 -4 -4 -4 -4 -4 -4 -4 -4 -5 -5 -5 -5 -5 -5

GEFSCGP_850_meantemp_330.txt.gz
Temperature
8 10 9 9 9 10 10 10 10 10 9 9 10 10 10 9 8 8 8 8 7 6 6 6 6 6 7 7 7 7 7 7 7 7 7 7 7 7 7 7 7 7 7 7
9 9 8 8 8 8 9 9 9 9 8 9 9 10 10 9 9 8 8 7 7 6 5 5 6 6 6 6 7 7 7 7 7 7 7 7 7 7 7 7 7 7 7 7
9 8 7 8 8 8 8 9 8 8 8 8 8 10 10 9 8 7 7 6 6 6 5 5 5 5 5 6 6 6 6 6 6 6 6 6 6 6 6 6 6 6 6 6
8 7 7 8 8 8 8 7 7 7 8 9 8 10 11 9 9 8 7 6 6 5 5 4 5 5 5 5 6 6 6 6 6 6 6 6 5 5 6 5 5 5 5 5
7 6 7 7 7 7 7 6 6 7 7 7 8 8 11 9 8 8 8 6 5 4 4 4 4 4 5 5 5 5 5 5 5 5 5 5 5 5 5 5 5 5 5 5
6 6 6 6 6 6 6 6 6 6 7 7 8 8 10 9 9 8 7 6 5 4 3 3 4 4 4 4 5 5 5 5 5 5 4 4 4 4 4 4 4 4 4 4
6 6 5 5 6 6 6 7 7 7 7 8 7 7 9 8 7 7 6 5 4 3 3 3 3 3 4 4 4 4 4 4 4 4 4 4 4 4 4 4 4 4 4 4
7 7 5 5 6 6 6 6 7 8 9 9 6 7 9 7 5 5 4 4 3 3 3 3 3 3 3 3 4 4 4 4 4 3 3 3 3 3 3 3 3 3 3 3
7 6 4 4 4 5 6 6 6 6 5 6 8 7 7 6 6 5 4 3 3 3 2 2 2 3 3 3 3 3 3 3 3 3 3 3 2 2 2 2 2 2 2 2
6 5 4 4 4 4 5 5 5 6 6 8 8 8 8 7 6 6 5 4 3 2 2 2 2 2 2 2 2 2 2 2 2 2 2 2 2 2 2 2 2 2 2 2
4 5 4 4 4 4 4 4 4 5 5 7 8 9 7 6 6 5 5 3 3 2 2 2 2 2 2 1 1 1 1 1 1 1 1 1 1 1 1 1 1 1 1 1
3 5 5 4 2 2 4 4 4 5 5 5 6 8 6 5 4 4 3 3 2 2 2 1 1 1 1 1 1 1 1 1 1 1 1 1 1 1 1 1 1 1 1 0
2 3 5 4 3 2 2 2 2 2 4 4 6 7 5 4 4 3 3 2 2 1 1 1 1 1 1 0 0 0 0 0 0 0 0 0 0 0 0 0 0 0 0 -0
3 2 4 6 5 3 2 1 1 2 4 5 5 6 6 5 4 3 2 2 1 1 1 1 1 0 0 0 -0 -0 -0 -0 -0 -0 -0 -0 -0 -0 -0 -0 -0 -0 -0 -1
2 3 2 2 2 2 2 1 1 1 3 4 5 4 5 5 4 3 2 1 1 1 0 0 0 -0 -0 -0 -0 -0 -0 -0 -1 -1 -1 -1 -1 -1 -1 -1 -1 -1 -1 -1
1 2 1 1 1 1 1 1 1 1 2 2 2 3 4 3 2 2 1 1 1 0 0 0 -0 -0 -1 -1 -1 -1 -1 -1 -1 -1 -1 -1 -1 -2 -1 -1 -1 -1 -1 -1
0 0 2 3 1 0 2 2 1 1 1 2 3 4 3 2 2 1 1 0 0 0 0 -0 -0 -1 -1 -1 -1 -1 -1 -1 -1 -2 -2 -2 -2 -2 -2 -2 -2 -2 -2 -2
-1 0 1 2 1 2 4 2 1 1 1 1 1 2 2 2 1 0 0 0 0 0 -0 -0 -1 -1 -1 -1 -1 -1 -1 -2 -2 -2 -2 -2 -2 -2 -2 -2 -2 -2 -2 -2
-1 0 1 1 2 3 3 1 0 0 1 1 1 1 1 -0 -0 1 1 1 0 0 -0 -1 -1 -1 -1 -1 -1 -2 -2 -2 -2 -2 -2 -2 -3 -2 -2 -2 -2 -2 -2 -3
-2 -1 0 0 2 3 4 1 -0 1 2 2 0 0 0 -1 2 3 1 0 0 -0 -1 -1 -1 -1 -1 -2 -2 -2 -2 -2 -2 -3 -3 -3 -3 -3 -3 -3 -3 -3 -3 -3
-2 -1 -0 0 2 3 3 -1 -0 2 4 1 0 -0 -1 -1 1 1 0 -0 -0 -1 -1 -1 -1 -1 -1 -2 -2 -2 -2 -3 -3 -3 -3 -3 -3 -3 -3 -3 -3 -3 -3 -3
-0 -0 -1 -0 1 3 0 -1 1 3 1 0 -0 -0 -1 -1 -0 -1 -1 -1 -1 -1 -1 -1 -1 -2 -2 -2 -2 -2 -3 -3 -3 -3 -3 -3 -3 -3 -3 -3 -3 -3 -4 -4
-1 0 1 0 2 1 -1 -0 0 0 -0 0 -0 -0 -1 -1 -1 -1 -1 -1 -1 -1 -2 -2 -2 -2 -2 -2 -3 -3 -3 -3 -3 -3 -3 -3 -3 -3 -4 -4 -4 -4 -4 -4
-2 -3 -2 -2 -0 -0 -1 -1 -0 -0 -0 -0 -0 -1 -1 -1 -1 -1 -1 -1 -2 -2 -2 -2 -2 -2 -2 -3 -3 -3 -3 -3 -3 -3 -3 -3 -4 -4 -4 -4 -4 -4 -4 -4
-0 -3 -2 -2 -1 -1 -1 -0 0 -0 -0 -0 -0 -1 -1 -1 -1 -1 -1 -2 -2 -2 -2 -3 -3 -3 -3 -3 -3 -3 -3 -3 -3 -3 -4 -4 -4 -4 -4 -4 -5 -5 -5 -5
-2 -2 -1 1 1 -0 1 1 0 -0 -0 -0 -1 -1 -1 -1 -1 -2 -2 -2 -2 -2 -3 -3 -3 -3 -3 -3 -3 -3 -3 -4 -4 -4 -4 -4 -4 -4 -4 -5 -5 -5 -5 -5

GEFSCGP_850_meantemp_336.txt.gz
Temperature
11 9 9 9 10 11 11 11 11 11 11 11 10 10 11 11 11 11 11 10 10 9 9 8 8 7 7 7 8 7 7 8 8 8 8 8 8 8 8 8 8 7 7 7
10 8 10 11 11 11 10 10 10 10 10 10 9 10 10 10 10 11 11 10 10 9 8 8 7 7 7 7 7 7 7 7 7 7 7 7 7 7 7 7 7 7 7 7
9 9 10 10 10 10 10 9 9 9 9 10 9 9 10 10 11 10 10 10 9 9 8 7 7 7 6 6 7 7 7 7 7 7 7 7 6 6 6 6 6 6 6 6
9 9 10 9 9 9 9 9 9 8 8 8 9 7 9 9 9 9 9 9 9 8 7 7 6 6 6 6 6 6 6 6 6 6 6 6 6 6 6 6 6 6 6 6
8 9 9 8 8 9 8 9 8 8 7 7 8 7 7 9 9 8 8 8 8 7 7 6 6 5 5 5 5 5 5 5 5 5 5 5 5 5 5 5 5 5 5 5
8 8 8 8 8 8 8 8 7 7 6 5 7 7 7 8 8 8 8 8 7 7 6 6 5 5 5 4 4 4 4 5 5 5 5 5 5 4 4 5 4 4 4 4
7 7 7 8 7 7 7 6 5 6 5 6 8 7 7 8 8 8 7 7 7 6 6 5 5 4 4 4 4 4 4 4 4 4 4 4 4 4 4 4 4 4 4 4
6 6 6 7 7 6 6 6 5 6 6 7 7 6 7 8 8 8 7 7 6 6 5 5 4 4 4 3 3 3 3 3 3 3 3 3 3 3 3 3 3 3 3 3
6 6 6 6 7 6 6 6 6 5 5 5 6 7 7 7 7 6 6 6 6 5 5 4 4 4 3 3 3 3 3 3 3 3 3 3 3 3 2 2 2 2 2 2
6 5 6 6 6 6 6 6 5 5 5 5 7 7 6 6 6 6 5 5 5 5 4 4 4 3 3 3 2 2 2 2 2 2 2 2 2 2 2 2 2 2 2 2
6 4 4 5 4 4 5 5 5 5 5 5 5 6 7 6 6 5 5 5 5 4 4 4 3 3 2 2 2 2 2 2 1 1 1 1 1 1 1 1 1 1 1 1
5 4 3 4 4 4 4 5 4 4 4 4 4 5 7 6 5 5 5 5 4 4 4 3 3 2 2 2 1 1 1 1 1 1 1 1 1 1 1 1 1 1 1 1
4 3 3 3 3 2 2 3 3 3 3 3 4 5 6 5 5 5 5 4 4 3 3 3 2 2 1 1 1 1 1 1 1 1 1 1 1 1 0 0 0 0 -0 -0
4 2 2 4 4 2 2 2 2 2 2 3 4 5 5 5 4 4 4 4 4 3 3 2 2 1 1 1 1 1 0 0 0 0 0 0 0 -0 -0 -0 -0 -0 -1 -1
2 2 2 2 3 3 2 2 1 1 2 2 3 3 4 4 3 4 4 4 3 3 2 2 1 1 1 0 0 0 0 0 -0 -0 -0 -0 -0 -1 -1 -1 -1 -1 -1 -1
1 1 1 1 2 2 1 2 1 1 1 2 2 2 4 4 4 4 4 3 3 2 2 2 1 1 0 0 -0 -0 -0 -0 -1 -1 -1 -1 -1 -1 -1 -1 -1 -1 -1 -2
0 0 1 2 2 1 1 1 1 1 1 1 2 3 3 3 2 3 3 3 2 2 2 1 1 1 0 0 -0 -0 -1 -1 -1 -1 -1 -1 -1 -1 -1 -1 -1 -1 -2 -2
-0 -0 1 1 1 1 2 2 2 1 1 1 1 2 2 2 3 3 3 3 2 2 1 1 1 0 0 -0 -0 -1 -1 -1 -1 -1 -1 -1 -2 -2 -2 -2 -2 -2 -2 -2
-0 -0 1 1 1 2 2 2 1 1 1 1 1 1 2 2 2 2 3 2 2 2 1 1 1 0 -0 -0 -1 -1 -1 -1 -2 -2 -2 -2 -2 -2 -2 -2 -2 -2 -2 -3
-1 -1 -0 1 1 1 3 2 2 1 0 2 1 1 1 1 -0 1 2 2 1 1 1 0 0 -0 -0 -1 -1 -1 -1 -2 -2 -2 -2 -2 -2 -2 -2 -2 -3 -3 -3 -3
-2 -1 -1 -0 0 1 2 1 1 1 1 2 2 2 1 0 0 2 1 1 1 1 0 0 -0 -0 -1 -1 -1 -1 -2 -2 -2 -2 -2 -2 -2 -3 -3 -3 -3 -3 -3 -3
-1 -1 -1 -0 0 1 0 0 0 1 2 2 2 2 1 1 1 1 1 1 0 0 -0 -0 -1 -1 -1 -1 -2 -2 -2 -2 -2 -2 -3 -3 -3 -3 -3 -3 -3 -3 -4 -4
-1 -1 -1 -0 1 1 1 1 2 2 2 2 1 1 1 0 0 0 -0 -0 -0 -0 -1 -1 -1 -1 -2 -2 -2 -2 -2 -2 -2 -3 -3 -3 -3 -3 -3 -3 -3 -4 -4 -4
-1 -1 -1 -1 -0 1 1 2 2 2 1 1 1 1 0 -0 -0 -0 -1 -1 -1 -1 -1 -1 -2 -2 -2 -2 -2 -2 -2 -3 -3 -3 -3 -3 -3 -3 -3 -4 -4 -4 -4 -4
-0 -2 -2 -2 -1 0 1 1 1 1 1 1 0 0 -0 -0 -0 -1 -1 -1 -1 -1 -1 -2 -2 -2 -2 -2 -3 -3 -3 -3 -3 -3 -3 -3 -4 -4 -4 -4 -4 -4 -4 -5
-1 -2 -2 -1 0 -0 1 2 1 1 1 0 0 -0 -0 -1 -1 -1 -1 -1 -1 -2 -2 -2 -2 -3 -3 -3 -3 -3 -3 -3 -3 -3 -3 -4 -4 -4 -4 -4 -4 -4 -5 -5

GEFSCGP_850_meantemp_342.txt.gz
Temperature
7 6 5 6 7 8 8 8 8 8 8 8 7 7 7 7 7 7 7 7 7 8 8 8 8 8 8 8 8 8 8 8 8 8 8 8 8 8 8 7 7 7 7 7
5 5 6 7 7 7 7 7 7 7 7 7 6 6 6 6 6 7 7 7 7 7 7 7 7 8 8 8 7 7 7 7 7 7 7 7 7 7 7 7 7 7 7 7
6 6 7 7 7 7 7 6 6 6 7 7 6 6 6 6 6 7 7 7 7 7 7 7 7 7 7 7 7 7 7 7 7 7 7 7 7 7 7 7 7 7 6 6
5 6 7 7 6 7 6 7 7 6 5 5 6 5 5 5 6 5 6 7 7 7 7 7 7 7 7 7 7 6 6 6 6 6 6 6 6 6 6 6 6 6 6 6
5 6 6 6 6 6 6 6 6 6 5 4 4 4 4 5 5 5 5 6 7 7 7 7 6 6 6 6 6 6 6 6 6 6 6 6 5 5 6 5 5 5 5 5
5 6 6 6 6 6 6 5 5 3 3 4 4 4 4 4 5 5 5 6 6 6 6 6 6 6 6 5 5 5 5 5 5 5 5 5 5 5 5 5 5 5 5 5
5 5 5 6 6 5 5 4 3 3 2 3 4 4 4 4 4 5 5 5 6 6 6 6 5 5 5 5 5 5 5 5 5 4 4 4 4 4 4 4 4 4 4 4
4 4 4 5 5 4 4 4 3 4 3 3 3 3 4 4 4 5 5 6 6 6 6 5 5 5 5 5 4 4 4 4 4 4 4 4 3 3 3 3 3 3 3 3
3 4 4 4 5 5 4 3 3 2 2 2 3 2 3 4 4 3 4 4 5 5 5 5 5 5 5 4 4 4 4 3 3 3 3 3 3 3 3 3 3 3 3 2
3 3 3 4 4 4 4 3 2 2 3 3 3 3 3 4 4 3 3 3 4 5 5 4 4 4 4 4 4 3 3 3 3 3 3 2 2 2 2 2 2 2 2 2
3 2 2 2 2 2 3 3 2 1 1 2 3 3 3 4 3 3 3 4 4 5 4 4 4 4 4 3 3 3 3 2 2 2 2 2 2 2 2 2 2 2 2 2
2 1 1 1 1 2 2 2 2 2 1 1 1 2 3 3 3 3 3 4 4 4 4 4 4 3 3 3 3 2 2 2 2 2 2 2 2 1 1 1 1 1 1 1
1 1 1 2 1 1 1 1 1 0 0 -0 1 3 3 2 2 3 3 4 4 4 4 3 3 3 3 3 2 2 2 2 2 1 1 1 1 1 1 1 1 1 1 0
1 -0 1 2 2 0 -0 0 -0 0 0 -0 0 2 3 2 2 2 3 3 4 3 3 3 3 3 2 2 2 2 2 1 1 1 1 1 1 0 0 0 0 0 -0 -0
0 -0 -1 -0 0 -0 0 0 -0 -0 0 0 1 1 2 2 1 2 3 3 3 3 3 3 2 2 2 2 2 1 1 1 1 0 0 0 0 -0 -0 -0 -0 -0 -0 -0
-1 -1 -1 -1 -0 -0 -0 -0 -0 -0 -0 -0 0 0 1 2 2 2 2 3 2 3 3 2 2 2 2 2 1 1 1 0 0 0 -0 -0 -1 -1 -1 -1 -1 -1 -1 -1
-2 -2 -1 -1 -1 -0 0 -0 -1 -1 -1 -1 0 1 1 1 1 1 2 2 2 3 2 2 2 2 2 1 1 1 0 0 -0 -0 -0 -1 -1 -1 -1 -1 -1 -1 -1 -1
-2 -2 -2 -1 -1 0 1 -0 -1 -1 -1 -1 -1 -0 0 1 2 2 2 2 2 2 2 2 2 2 1 1 1 0 0 -0 -0 -0 -1 -1 -1 -1 -1 -1 -1 -1 -1 -2
-2 -2 -2 -2 -1 -1 0 -0 -1 -1 -0 -1 -1 -1 0 1 0 1 2 2 2 2 2 2 1 1 1 1 0 0 -0 -0 -0 -1 -1 -1 -1 -2 -2 -2 -2 -2 -2 -2
-3 -3 -2 -2 -1 -0 1 0 -0 -0 -0 -0 -1 -1 -1 -1 -1 -0 2 2 2 2 1 1 1 1 1 0 0 -0 -0 -0 -1 -1 -1 -2 -2 -2 -2 -2 -2 -2 -2 -2
-3 -3 -2 -2 -2 -1 -0 -0 -0 0 1 1 0 0 -0 -1 0 1 2 1 1 1 1 1 1 1 0 -0 -0 -0 -1 -1 -1 -1 -2 -2 -2 -2 -2 -3 -3 -3 -3 -3
-3 -3 -3 -3 -2 -1 -1 -1 -1 0 1 1 1 1 0 1 1 1 1 1 1 1 1 0 0 0 -0 -0 -1 -1 -1 -1 -1 -2 -2 -2 -2 -3 -3 -3 -3 -3 -3 -3
-4 -3 -3 -2 -1 -0 -0 0 1 2 1 2 2 1 1 1 0 0 0 0 0 0 0 -0 -0 -0 -0 -1 -1 -1 -1 -2 -2 -2 -2 -2 -3 -3 -3 -3 -3 -3 -4 -4
-4 -4 -4 -4 -3 -2 -0 1 1 1 1 1 1 1 1 0 0 0 0 -0 -0 -0 -0 -0 -1 -1 -1 -1 -1 -2 -2 -2 -2 -2 -2 -3 -3 -3 -3 -4 -4 -4 -4 -4
-3 -5 -4 -4 -3 -2 -0 1 1 1 1 1 1 1 0 0 -0 -0 -0 -0 -1 -1 -1 -1 -1 -1 -1 -2 -2 -2 -2 -2 -3 -3 -3 -3 -3 -3 -3 -4 -4 -4 -4 -5
-4 -4 -3 -2 -1 -2 -0 1 1 1 1 0 0 0 0 -0 -1 -1 -1 -1 -1 -1 -1 -1 -1 -2 -2 -2 -2 -2 -3 -3 -3 -3 -3 -3 -4 -4 -4 -4 -4 -4 -4 -5

GEFSCGP_850_meantemp_348.txt.gz
Temperature
6 5 5 5 5 7 6 6 6 6 6 6 5 5 5 5 5 5 5 6 6 7 7 7 7 7 7 7 7 7 7 7 7 7 8 7 7 7 7 7 7 7 7 7
5 5 5 6 6 6 6 6 6 6 6 6 5 5 5 4 5 5 5 6 6 7 7 7 7 7 7 7 7 7 7 7 7 7 7 7 7 7 7 7 7 7 7 7
5 5 6 6 5 6 5 5 5 5 5 5 5 5 5 5 5 5 5 6 6 7 7 7 7 7 7 7 7 6 6 6 6 6 6 6 6 6 6 6 6 6 6 6
4 5 5 5 5 5 5 5 5 5 5 4 5 5 5 4 4 4 4 5 6 6 6 7 7 6 6 6 6 6 6 6 6 6 6 6 6 6 6 6 6 5 5 5
4 4 5 5 5 5 5 5 4 4 4 3 3 4 4 4 4 4 4 5 5 6 6 6 6 6 6 6 6 6 5 5 5 5 5 5 5 5 5 5 5 5 5 4
4 4 4 4 5 5 4 4 3 2 2 3 3 3 4 3 4 4 4 4 5 6 6 6 6 6 6 6 5 5 5 5 5 5 5 5 5 5 5 5 4 4 4 4
4 4 4 4 4 4 4 3 3 3 2 3 3 3 4 4 3 4 4 4 5 6 6 6 6 6 5 5 5 5 5 5 4 4 4 4 4 4 4 4 4 4 4 4
3 3 3 3 4 4 3 4 3 4 3 2 2 2 3 3 3 3 4 4 5 5 5 5 5 5 5 5 5 5 4 4 4 4 4 4 4 3 3 3 3 3 3 3
3 3 3 3 3 4 3 2 3 2 1 2 2 1 2 2 2 2 3 4 4 5 5 5 5 5 5 5 4 4 4 4 4 3 3 3 3 3 3 3 3 3 3 2
2 2 2 3 3 3 3 2 1 2 3 3 3 2 3 3 3 2 2 3 4 4 5 5 5 5 4 4 4 4 3 3 3 3 3 3 3 3 2 2 2 2 2 2
2 2 1 2 2 2 2 2 1 1 1 2 2 3 3 3 3 2 2 3 4 4 4 5 4 4 4 4 3 3 3 3 2 2 2 2 2 2 2 2 2 2 2 2
1 1 1 1 1 1 1 1 1 2 1 -0 0 2 3 1 1 1 2 3 4 4 4 4 4 4 4 3 3 3 2 2 2 2 2 2 2 2 1 1 1 1 1 1
1 0 1 1 1 -0 -0 0 -0 -0 -1 -1 0 3 2 1 1 2 2 3 3 4 4 4 4 4 3 3 3 2 2 2 2 2 1 1 1 1 1 1 1 1 1 1
1 -0 1 2 2 0 -1 -1 -1 -0 0 -0 -0 1 2 2 1 1 2 3 3 3 3 3 3 3 3 3 3 2 2 2 1 1 1 1 1 1 1 1 0 0 0 0
-0 -1 -1 -1 -1 -1 -1 -1 -1 -1 -0 0 1 0 2 2 1 2 2 2 3 3 3 3 3 3 3 2 2 2 2 1 1 1 1 1 1 1 0 0 -0 -0 -0 -0
-2 -1 -2 -1 -1 -2 -1 -1 -1 -1 -1 -1 -0 0 1 1 1 1 2 2 2 3 3 3 3 3 2 2 2 2 2 1 1 1 1 1 0 0 -0 -0 -0 -1 -1 -1
-2 -2 -1 -1 -2 -1 -0 -1 -1 -2 -2 -1 0 1 0 -0 -0 1 2 2 2 2 2 3 2 2 2 2 2 2 1 1 1 1 0 0 -0 -0 -0 -1 -1 -1 -1 -1
-3 -2 -2 -2 -1 0 1 -1 -1 -1 -2 -2 -1 -1 -1 -0 1 1 2 2 2 2 2 2 2 2 2 2 1 1 1 1 1 0 0 -0 -0 -1 -1 -1 -1 -1 -1 -1
-3 -2 -3 -3 -2 -1 -0 -1 -2 -2 -1 -2 -2 -2 -1 -1 -1 1 2 2 2 2 2 2 2 1 1 1 1 1 1 1 0 0 -0 -0 -1 -1 -1 -1 -1 -2 -2 -2
-4 -3 -3 -3 -1 -1 1 -1 -2 -1 -1 -1 -2 -2 -2 -2 -2 -0 2 2 2 1 1 1 1 1 1 1 1 1 1 0 0 -0 -0 -1 -1 -1 -1 -2 -2 -2 -2 -2
-3 -4 -3 -3 -3 -2 -1 -2 -1 -0 0 -0 -1 -1 -2 -2 -1 1 1 1 1 1 1 1 1 1 1 1 0 0 0 0 -0 -0 -1 -1 -1 -2 -2 -2 -2 -2 -2 -3
-3 -4 -4 -4 -3 -1 -2 -3 -2 -0 0 0 0 0 -0 -0 0 0 0 0 0 0 0 0 0 0 0 0 0 0 -0 -0 -1 -1 -1 -2 -2 -2 -2 -2 -2 -3 -3 -3
-4 -3 -3 -3 -1 -1 -2 -1 0 0 0 1 1 1 0 -0 0 0 0 0 -0 -0 -0 -0 -0 -0 -0 -0 -0 -0 -1 -1 -1 -1 -2 -2 -2 -2 -2 -3 -3 -3 -3 -3
-5 -5 -5 -5 -4 -3 -1 -0 0 0 1 1 1 0 0 -0 -0 -0 -0 -0 -0 -0 -1 -1 -1 -1 -1 -1 -1 -1 -1 -1 -1 -2 -2 -2 -2 -2 -3 -3 -3 -4 -4 -4
-4 -6 -6 -5 -4 -3 -1 0 1 1 0 0 0 0 -0 -0 -0 -0 -1 -1 -1 -1 -1 -1 -1 -1 -1 -1 -1 -1 -2 -2 -2 -2 -2 -3 -3 -3 -3 -3 -3 -4 -4 -4
-5 -5 -4 -3 -2 -3 -1 1 1 0 0 0 -0 -0 -0 -1 -1 -1 -1 -1 -1 -1 -1 -2 -2 -2 -2 -2 -2 -2 -2 -2 -2 -2 -2 -3 -3 -3 -3 -4 -4 -4 -4 -4